Location: Unspecified
(49.2170°N, 0.0000°E)
Time: 15:27:13
(UTC+00:00)

Envisat - Pass Details

Date: 28 November 2020
Orbit: 764 x 766 km, 98.1° (Epoch: 20 January)

Event Time Altitude Azimuth Distance (km) Brightness Sun altitude
Rises 16:47:16 0° 162° (SSE) 3,221 6.3 -6.7°
Reaches altitude 10° 16:49:33 10° 162° (SSE) 2,299 5.6 -7.1°
Maximum altitude 16:54:38 85° 76° (ENE) 777 3.0 -7.8°
Drops below altitude 10° 16:59:45 10° 347° (NNW) 2,317 5.4 -8.6°
Sets 17:02:04 0° 347° (NNW) 3,247 6.1 -9.0°
